Location: Le Castellard
(44.1862°N, 6.1301°E)
Time: 19:17:02
(UTC+00:00)

Cosmos 2184 Rocket - Pass Details

Date: 18 January 2020
Orbit: 959 x 1002 km, 82.9° (Epoch: 21 February)

Event Time Altitude Azimuth Distance (km) Brightness Sun altitude
Exits shadow 05:14:38 - 340° (NNW) 2,848 6.1 -19.7°
Reaches altitude 10° 05:15:01 10° 338° (NNW) 2,711 6.0 -19.6°
Maximum altitude 05:20:44 41° 271° (W) 1,382 4.3 -18.6°
Drops below altitude 10° 05:26:29 10° 204° (SSW) 2,717 6.2 -17.6°
Sets 05:29:07 0° 197° (SSW) 3,667 7.0 -17.1°
